FLOCK 3P-74 (42048 NORAD) Tracking and Keplerian Element Data

This shows tracking and keplerian element data for the satellite.

Feedback or suggestion? Click here.




ElementValue
Catalog42048
NameFLOCK 3P-74
Epoch Orbit32867
Epoch Day14.12884709
Epoch Year2023
RAAN85.1361
Inclination97.2532
Eccentricity0.0004043
Argument of Perigee162.8124
Mean Anonmoly197.3266
Mean Motion15.52276014
Decay Rate0.00126433
L11 42048U 17008DE 23014.12884709 .00126433 00000+0 20524-2 0 9996
L22 42048 97.2532 85.1361 0004043 162.8124 197.3266 15.52276014328670



Live tracking and technical data element details for FLOCK 3P-74 (NORAD 42048). FLOCK 3P-74 can be tracked NOW for your location showing map with azimuth and elevation plus other details from your city location.







IsCatalogInMostPopularTable: catalog: 42048, numindb: 612
Update: records affected: 1



GetName: 42048 FLOCK 3P-74

Hit Count: updated at: Thu, 15 May 2025 18:23:14 GMT